Weather History for KWVI - November, 2012

Change the Weather History Date:

Sunday, November 4, 2012

  Actual Average Record
Temperature  
Mean Temperature 67 °F 57 °F  
Max Temperature 84 °F 69 °F 89 °F (2010)
Min Temperature 50 °F 45 °F 37 °F (2013)
Degree Days  
Heating Degree Days 0    
Month to date heating degree days 16  
Since 1 July heating degree days 504  
Cooling Degree Days 2    
Month to date cooling degree days 2  
Year to date cooling degree days 70  
Growing Degree Days 17 (Base 50)    
Moisture  
Dew Point 49 °F    
Average Humidity 59    
Maximum Humidity 86    
Minimum Humidity 31    
Precipitation  
Precipitation 0.00 in - 1.20 in (1972)
Month to date precipitation 0.13  
Year to date precipitation 12.51  
Since 1 July precipitation 0.58  
Sea Level Pressure  
Sea Level Pressure 30.14 in    
Wind  
Wind Speed 2 mph (WNW)    
Max Wind Speed 8 mph    
Max Gust Speed 10 mph    
Visibility 10 miles    
Events      
T = Trace of Precipitation, MM = Missing Value Source: NWS Daily Summary

Daily Weather History Graph

Daily Weather History Graph

Search for Another Location

Airport or City:

Trip Planner

Search our weather history database for the weather conditions in past years. The results will help you decide how hot, cold, wet, or windy it might be!

Date:

Astronomy

Nov. 04, 2012 Rise Set
Actual Time 6:34 AM PST 5:06 PM PST
Civil Twilight 6:07 AM PST 5:33 PM PST
Nautical Twilight 5:36 AM PST 6:04 PM PST
Astronomical Twilight 5:06 AM PST 6:34 PM PST
Moon 9:50 PM PST (11/4) 11:20 AM PST (11/4)
Length of Visible Light 11h 25m
Length of Day
10h 31m
Waning Gibbous, 71% of the Moon is Illuminated
Nov 4
Waning Gibbous
Nov 6
Last Quarter
Nov 13
New
Nov 20
First Quarter
Nov 28
Full

Hourly Weather History & Observations

Time (PST) Temp. Dew Point Humidity Pressure Visibility Wind Dir Wind Speed Gust Speed Precip Events Conditions
12:53 AM 55.0 °F 48.0 °F 77% 30.14 in 10.0 mi NW 3.5 mph - N/A   Clear
1:53 AM 53.1 °F 46.9 °F 80% 30.14 in 10.0 mi Calm Calm - N/A   Clear
1:53 AM 53.1 °F 48.0 °F 83% 30.14 in 10.0 mi WNW 3.5 mph - N/A   Clear
2:53 AM 52.0 °F 46.9 °F 83% 30.15 in 10.0 mi Calm Calm - N/A   Clear
3:53 AM 50.0 °F 46.9 °F 89% 30.14 in 10.0 mi Calm Calm - N/A   Clear
4:53 AM 51.1 °F 46.9 °F 86% 30.15 in 10.0 mi WNW 4.6 mph - N/A   Clear
5:53 AM 53.1 °F 46.9 °F 80% 30.15 in 10.0 mi North 3.5 mph - N/A   Clear
6:53 AM 51.1 °F 46.9 °F 86% 30.17 in 10.0 mi Calm Calm - N/A   Clear
7:53 AM 57.9 °F 46.9 °F 67% 30.19 in 10.0 mi Calm Calm - N/A   Clear
8:53 AM 63.0 °F 48.0 °F 58% 30.19 in 10.0 mi Calm Calm - N/A   Clear
9:53 AM 69.1 °F 48.9 °F 49% 30.19 in 10.0 mi East 3.5 mph - N/A   Clear
10:53 AM 75.0 °F 51.1 °F 43% 30.17 in 10.0 mi Calm Calm - N/A   Clear
11:53 AM 80.1 °F 48.9 °F 34% 30.15 in 10.0 mi Calm Calm - N/A   Clear
12:53 PM 82.0 °F 48.0 °F 30% 30.12 in 10.0 mi Calm Calm - N/A   Clear
1:53 PM 81.0 °F 48.9 °F 33% 30.11 in 10.0 mi SW 6.9 mph - N/A   Clear
2:53 PM 84.0 °F 50.0 °F 31% 30.10 in 10.0 mi Variable 3.5 mph - N/A   Clear
3:53 PM 82.0 °F 50.0 °F 33% 30.09 in 10.0 mi WSW 5.8 mph - N/A   Clear
4:53 PM 79.0 °F 51.1 °F 38% 30.10 in 10.0 mi West 3.5 mph - N/A   Clear
5:53 PM 70.0 °F 55.0 °F 59% 30.11 in 10.0 mi NW 3.5 mph - N/A   Clear
6:53 PM 66.9 °F 54.0 °F 63% 30.12 in 10.0 mi NW 3.5 mph - N/A   Clear
7:53 PM 64.0 °F 52.0 °F 65% 30.13 in 10.0 mi Calm Calm - N/A   Clear
8:53 PM 63.0 °F 51.1 °F 65% 30.13 in 10.0 mi Calm Calm - N/A   Clear
9:53 PM 61.0 °F 48.9 °F 64% 30.14 in 10.0 mi WNW 4.6 mph - N/A   Clear
10:53 PM 60.1 °F 48.0 °F 64% 30.14 in 10.0 mi NW 4.6 mph - N/A   Clear